www.pogodaiklimat.ru

Погода и климат >> Архив погоды >> Соломоновы Острова >> Остров Таро


ПОГОДА на Острове Таро

  • Прогноз погоды на Острове Таро
  • Монитор погоды на Острове Таро

АРХИВ ПОГОДЫ на Острове Таро

Время (UTC), дата Ветер
(напр.,м/с)
 
Видим.   Явления Облачность Т
(С)
Тd
(С)
f
(%)
Тe
(С)
Тes
(С)
Комфортность P
(гПа)
Po
(гПа)
Тmin
(С)
Tmax
(С)
R
(мм)
R24
(мм)
S
(см)
21 15.09 штиль 0 20 км 5/1 420 м
[Cu med, cong Ac trans Ci]
+26.4 +23.1 82 +35 +37 очень
душно
1013.6 1013.3
00 16.09 Ю 2 20 км осадки на расстоянии 5/4 420 м
[Cb cap Cs]
+29.1 +25.2 80 +42 +53 опасность
перегрева
1013.2 1012.9 1
03 16.09 Ю 4 20 км осадки на расстоянии 5/4 450 м
[Cb cap]
+29.0 +24.7 78 +41 +50 опасность
перегрева
1011.0 1010.7
06 16.09 ЮВ 2 20 км осадки на расстоянии {гроза} 1/1 450 м
[Cb cap]
+29.5 +25.8 81 +44 +47 опасность
перегрева
1009.9 1009.6
09 16.09 штиль 0 20 км 1/1 420 м
[Cu med, cong]
+26.4 +24.5 89 +37 +37 очень
душно
1011.7 1011.4
12 16.09 штиль 0 20 км 1/1 420 м
[Cu med, cong Ac trans]
+25.5 +24.5 94 +36 +36 очень
душно
1012.3 1012.0 +30.5
18 16.09 штиль 0 20 км 1/1 420 м
[Cu med, cong Ci fib]
+25.0 +24.3 96 +35 +35 очень
душно
1010.9 1010.6
21 16.09 штиль 0 20 км осадки на расстоянии 4/3 420 м
[Cb cap Ci fib]
+26.9 +24.3 86 +38 +41 очень
душно
1012.9 1012.6
00 17.09 ЮВ 3 20 км осадки на расстоянии 5/5 480 м
[Cu med, cong Ci fib]
+30.0 +25.8 78 +45 +52 опасность
перегрева
1013.0 1012.7
03 17.09 ЮВ 1 20 км осадки на расстоянии 6/5 480 м
[Cb cap Cc]
+29.9 +26.8 83 +46 +64 опасность
перегрева
1010.8 1010.5 6
06 17.09 штиль 0 20 км в посл. час ливневой дождь 8/4 480 м
[Cb cap Ac As Cs]
+27.1 +25.6 92 +40 +42 очень
душно
1010.5 1010.2 25
09 17.09 штиль 0 20 км осадки на расстоянии 4/3 420 м
[Cu Sc Ci fib]
+25.6 +24.6 94 +36 +36 очень
душно
1012.5 1012.2 2
12 17.09 штиль 0 20 км осадки на расстоянии 4/3 420 м
[Cb cap Ac trans Ci fib]
+24.9 +24.3 96 +34 +34 очень
душно
1013.5 1013.2 +30.1
15 17.09 штиль 0 20 км 1/1 420 м
[Cu hum]
+24.0 +23.7 98 +33 +33 очень
душно
1012.2 1011.9
18 17.09 В 2 20 км 1/1 420 м
[Cu med, cong Ci fib]
+25.0 +24.3 96 +35 +35 очень
душно
1012.0 1011.7
21 17.09 ЮВ 2 20 км осадки на расстоянии 1/1 450 м
[Cb cap]
+27.0 +25.6 92 +40 +42 очень
душно
1013.3 1013.0
00 18.09 Ю 3 20 км осадки на расстоянии 3/3 450 м
[Cb cap]
+30.4 +26.5 80 +47 +58 опасность
перегрева
1013.5 1013.2 33
06 18.09 ЮВ 3 20 км осадки на расстоянии {морось} 5/5 450 м
[Cu Sc Ci fib]
+29.5 +25.4 79 +43 +45 опасность
перегрева
1010.7 1010.4 0.8
09 18.09 Ю 3 20 км осадки на расстоянии {морось} 5/5 420 м
[Cu Sc Ci fib]
+27.5 +26.1 92 +41 +41 опасность
перегрева
1012.3 1012.0 0.6
12 18.09 Ю 4 20 км осадки на расстоянии {морось} 5/5 420 м
[Cu Sc Ci fib]
+27.0 +24.9 88 +39 +39 очень
душно
1012.1 1011.8 +31.5 0.6
18 18.09 ЮВ 3 20 км осадки на расстоянии 9/3 420 м
[Cb cap Ac trans Cs]
+26.6 +24.8 90 +38 +38 очень
душно
1010.8 1010.5 0.4
21 18.09 ЮВ 2 20 км осадки на расстоянии {морось} 10/4 420 м
[Cb cap As op]
+25.0 +23.7 93 +34 +34 очень
душно
1012.4 1012.1 0.4
03 19.09 ЮВ 3 10 км осадки на расстоянии 10/5 420 м
[Cb cap Ac As Cs]
+27.5 +24.0 81 +38 +39 очень
душно
1010.7 1010.4
06 19.09 ЮВ 2 20 км осадки на расстоянии {морось} 10/5 420 м
[Cu Sc Ac As]
+26.5 +24.5 89 +37 +38 очень
душно
1009.0 1008.7 0.4
09 19.09 ЮВ 2 20 км осадки на расстоянии 6/4 420 м
[Cb cap Ac As Cs]
+26.2 +24.3 89 +36 +36 очень
душно
1011.6 1011.3
12 19.09 штиль 0 20 км осадки на расстоянии 8/3 420 м
[Cb cap Cs]
+25.0 +24.1 95 +34 +34 очень
душно
1011.7 1011.4 +29.5
18 19.09 ЮВ 2 20 км осадки на расстоянии 3/3 420 м
[Cu med, cong Ci fib]
+25.5 +24.8 96 +36 +36 очень
душно
1009.1 1008.8
21 19.09 ЮВ 2 20 км 4/3 420 м
[Cu med, cong Ac trans Ci fib]
+27.2 +25.3 89 +39 +41 очень
душно
1009.9 1009.6
00 20.09 ЮВ 3 20 км осадки на расстоянии {морось} 5/5 450 м
[Cu Sc Ac trans Ci fib]
+28.5 +25.7 85 +42 +50 опасность
перегрева
1010.7 1010.4 0.0 0.4
03 20.09 штиль 0 10 км в посл. час морось {дождь} 10/6 420 м
[Cb cap Ac As]
+25.5 +23.6 89 +35 +39 очень
душно
1009.8 1009.5 10
06 20.09 штиль 0 20 км осадки на расстоянии {ливн. осадки, морось} 9/5 420 м
[Cb cap Ac trans Cs]
+26.9 +24.4 86 +38 +39 очень
душно
1008.7 1008.4 0.2
09 20.09 штиль 0 20 км зарница 9/4 420 м
[Cb cap Cs]
+26.2 +24.4 90 +37 +37 очень
душно
1010.2 1009.9
12 20.09 штиль 0 20 км зарница 9/5 420 м
[Cb cap Cs]
+25.8 +25.0 95 +37 +37 очень
душно
1010.8 1010.5 +29.9
15 20.09 штиль 0 20 км осадки на расстоянии 10/4 420 м
[Cb cap Ac As]
+26.0 +24.6 92 +37 +37 очень
душно
1009.6 1009.3
21 20.09 З 2 4000 м слаб. дождь 10/6 420 м
[Cb cap As op]
+25.0 +24.3 96 +35 +35 очень
душно
1012.2 1011.9 6
00 21.09 В 1 10 км слаб. дождь {гроза} 10/6 420 м
[Cb cap As op]
+25.5 +24.1 92 +35 +37 очень
душно
1012.5 1012.2 6 22
06 21.09 Ю 2 10 км осадки на расстоянии {морось} 10/3 420 м
[Cb cap Ac As]
+26.8 +23.7 83 +37 +37 очень
душно
1008.5 1008.2 0.2
09 21.09 ЮВ 2 10 км осадки на расстоянии 10/3 420 м
[Cb cap Ac As Cs]
+26.5 +23.6 84 +36 +36 очень
душно
1011.4 1011.1
12 21.09 Ю 1 10 км осадки на расстоянии 9/3 420 м
[Cb cap Cs]
+25.0 +23.8 93 +34 +34 очень
душно
1012.4 1012.1 +27.0
21 21.09 В 1 10 км осадки на расстоянии 10/6 420 м
[Cb cap Ac As]
+25.1 +24.4 96 +35 +35 очень
душно
1013.0 1012.7 2
00 22.09 С 1 20 км осадки на расстоянии 9/6 420 м
[Cb cap Ac As Cs]
+24.7 +23.6 94 +34 +39 очень
душно
1013.4 1013.1 10 17
03 22.09 СВ 2 20 км осадки на расстоянии 9/4 450 м
[Cb cap Ac cast Cc]
+27.3 +24.3 84 +38 +40 очень
душно
1011.1 1010.8
06 22.09 С 2 20 км осадки на расстоянии 9/3 420 м
[Cb cap Ac trans Cc]
+29.3 +23.9 73 +41 +42 опасность
перегрева
1010.7 1010.4
09 22.09 штиль 0 20 км осадки на расстоянии 8/3 420 м
[Cb cap Ac As Cs]
+25.9 +24.9 94 +37 +37 очень
душно
1012.3 1012.0

 

Местоположение метеостанции Остров Таро (Соломоновы Острова): широта -6.71 долгота 156.40 высота над уровнем моря 3 м.

В архиве по умолчанию представлена погода на Острове Таро за последнюю неделю. Архивные данные за месяц целиком и за предыдущие месяцы, начиная с января 2011 года, Вы можете получить, выбрав интересующий диапазон дат из раскрывающегося списка и нажав кнопку "Ввод!".


*Определитесь, кто Вы:
робот инопланетянин человек

Внимание! Время в таблицах - всемирное. Для получения местного времени необходимо прибавить поправку, которая равна 11 ч.

Смотрите также архив погоды в соседних городах и на ближайших метеорологических станциях:

Погода в Манде (Соломоновы Острова) (204 км)
Погода в Хониаре (Соломоновы Острова) (495 км)
Погода в Хониара аэропорту (Соломоновы Острова) (502 км)
Погода в Токуа (Папуа Новая Гвинея) (520 км)
Погода в Ауки (Соломоновы Острова) (530 км)
Погода на Мисиме (Папуа Новая Гвинея) (591 км)
Погода в Кавиенге (Папуа Новая Гвинея) (772 км)
Погода в Герни (Папуа Новая Гвинея) (778 км)
Погода на Атолле Капингамаранги (Микронезия) (885 км)
Погода в Порт-Морсби (Папуа Новая Гвинея) (1055 км)

Пояснения к столбцам:

Ветер - указаны скорость ветра в м/с - средняя за 10 мин, порывы в срок и между сроками (в фигурных скобках) и направление, откуда дует ветер: С - северный, СВ - северо-восточный, В - восточный, ЮВ - юго-восточный, Ю - южный, ЮЗ - юго-западный, З - западный, СЗ - северо-западный.
Видимость - горизонтальная дальность видимости в метрах или километрах. При видимости от 1 до 10 км при отсутствии осадков обычно наблюдается дымка, при ухудшении видимости до 1 км и менее - туман. В сухую погоду видимость может ухудшаться дымом, пылью или мглою.
Явления - указаны атмосферные явления, наблюдавшиеся в срок или в последний час перед сроком; фигурными скобками обозначены явления, наблюдавшиеся между сроками (за 1-3 часа до срока); квадратными скобками обозначены град или гололедные отложения с указанием их диаметра в мм.
Облачность - указаны через наклонную черту общая и нижняя облачность в баллах и высота нижней границы облаков в метрах; квадратными скобками обозначены формы облаков: Ci - перистые, Cs - перисто-слоистые, Cc - перисто-кучевые, Ac - высококучевые, As - высокослоистые, Sc - слоисто-кучевые, Ns - слоисто-дождевые, Cu - кучевые, Cb - кучево-дождевые. Подробнее классификацию облаков см. в Атласе облаков (PDF).
T - Температура воздуха - температура, измеренная на высоте 2 м над землей.
Td - Температура точки росы - температура, при понижении до которой содержащийся в воздухе водяной пар достигнет насыщения.
f - Относительная влажность воздуха - влажноcть воздуха, измеренная на высоте 2 м над землей.
Te - Эффективная температура - температура, которую ощущает одетый по сезону человек в тени. Характеристика душности погоды. При расчете учитывается влияние влажности воздуха и скорости ветра на теплоощущения человека.
Tes - Эффективная температура на солнце - температура, которую ощущает человек, с поправкой на солнечный нагрев. Характеристика знойности погоды. Зависит от высоты солнца над горизонтом, облачности и скорости ветра. Ночью, в пасмурную погоду, а также при ветре 12 м/с и более поправка равна нулю.
P - Атмосферное давление - приведенное к уровню моря атмосферное давление.
Po - Атмосферное давление - измеренное на уровне метеостанции атмосферное давление.
Tmin - Минимальная температура - минимум температуры воздуха на высоте 2 м над землей.
Tmax - Максимальная температура - максимум температуры воздуха на высоте 2 м над землей.
R - Количество осадков - Количество выпавших осадков за период времени, мм. При наведении курсора мыши на число - период времени, за который выпало указанное количество осадков.
R24 - Количество осадков - Количество выпавших осадков за 24 часа, мм.
S - Снежный покров - Высота снежного покрова, см. При наведении курсора мыши на число - состояние снежного покрова и степень покрытия местности в баллах.